Location: Caixon
(43.4106°N, 0.0273°E)
Time: 16:18:05
(UTC+00:00)

ALOS - Pass Details

Date: 16 October 2021
Orbit: 683 x 684 km, 97.9° (Epoch: 29 November)

Event Time Altitude Azimuth Distance (km) Brightness Sun altitude
Rises 04:00:54 0° 12° (NNE) 3,059 5.9 -25.0°
Reaches altitude 10° 04:03:09 10° 12° (NNE) 2,139 5.1 -24.6°
Maximum altitude 04:07:50 85° 286° (WNW) 693 2.1 -23.8°
Enters shadow 04:08:41 60° 203° (SSW) 781 2.3 -23.6°
